IRIDIUM 7 [-] 1 24793U 97020B 21109.92761494 .00000126 00000-0 37630-4 0 9990 2 24793 86.3921 92.6710 0002349 86.4631 273.6834 14.34375101254033 IRIDIUM 5 [-] 1 24795U 97020D 21109.90807035 .00000603 00000-0 62552-4 0 9993 2 24795 86.3991 52.7688 0140537 111.7126 249.9125 14.80495737260020 IRIDIUM 4 [-] 1 24796U 97020E 21109.89594288 .00000121 00000-0 35274-4 0 9991 2 24796 86.3919 90.5674 0002287 92.9958 267.1500 14.35278743254464 IRIDIUM 914 [-] 1 24836U 97030A 21109.73628161 .00000142 00000-0 39452-4 0 9993 2 24836 86.3888 103.5825 0002734 127.8158 232.3289 14.38981089388524 IRIDIUM 16 [-] 1 24841U 97030F 21109.78711602 .00000125 00000-0 35588-4 0 9994 2 24841 86.3994 122.5619 0003639 49.3834 310.7679 14.36931123248727 IRIDIUM 911 [-] 1 24842U 97030G 21109.78124847 .00000150 00000-0 36796-4 0 9994 2 24842 86.4422 122.5071 0016569 109.3958 250.9036 14.45225211255518 IRIDIUM 17 [-] 1 24870U 97034B 21109.84987207 .00000125 00000-0 36178-4 0 9999 2 24870 86.3970 152.3878 0001294 42.6830 317.4467 14.35988627245454 IRIDIUM 920 [-] 1 24871U 97034C 21109.77759399 .00000131 00000-0 35576-4 0 9999 2 24871 86.3951 135.2515 0013474 52.8274 307.4153 14.39699676247876 IRIDIUM 921 [-] 1 24873U 97034E 21109.58988114 .00001298 00000-0 70920-4 0 9996 2 24873 86.3884 122.0986 0005309 227.6533 132.4257 15.13327381299767 IRIDIUM 26 [-] 1 24903U 97043A 21109.85819407 .00000142 00000-0 42523-4 0 9993 2 24903 86.4016 27.4831 0002329 83.8026 276.3436 14.35451865238706 IRIDIUM 22 [-] 1 24907U 97043E 21109.81350596 .00000120 00000-0 35505-4 0 9990 2 24907 86.4017 29.8558 0002196 88.6005 271.5442 14.34384133238891 DUMMY MASS 1 [-] 1 24925U 97048A 21109.74010817 .00000099 00000-0 82511-5 0 9991 2 24925 86.3305 116.7273 0009115 115.3219 244.8950 14.85259899279510 DUMMY MASS 2 [-] 1 24926U 97048B 21109.72837575 .00000094 00000-0 77414-5 0 9999 2 24926 86.3305 118.0805 0009711 123.6569 236.5582 14.85027131279329 IRIDIUM 29 [-] 1 24944U 97051A 21109.89246445 .00000129 00000-0 38592-4 0 9993 2 24944 86.3970 60.1340 0002178 94.4470 265.6975 14.34799916235337 IRIDIUM 33 [-] 1 24946U 97051C 21109.88261742 .00000121 00000-0 36679-4 0 9997 2 24946 86.3886 59.6117 0008041 8.7549 351.3785 14.33727821234998 IRIDIUM 28 [-] 1 24948U 97051E 21109.88340753 .00000129 00000-0 37871-4 0 9992 2 24948 86.3978 58.5321 0002350 78.4580 281.6880 14.35754053235769 IRIDIUM 36 [-] 1 24967U 97056C 21109.89996737 .00000149 00000-0 44715-4 0 9995 2 24967 86.3930 90.2164 0001980 88.2970 271.8454 14.35822930234123 IRIDIUM 39 [-] 1 25042U 97069D 21109.82726886 .00000159 00000-0 38585-4 0 9992 2 25042 86.3907 140.7369 0017852 334.5658 25.4664 14.46454767229193 IRIDIUM 38 [-] 1 25043U 97069E 21109.84947438 .00000129 00000-0 37457-4 0 9997 2 25043 86.3967 151.0757 0003139 66.8333 293.3195 14.36251570227788 IRIDIUM 42 [-] 1 25077U 97077A 21109.82973109 .00000097 00000-0 27259-4 0 9998 2 25077 86.3981 155.4402 0002647 81.5967 278.5529 14.34638750223279 IRIDIUM 44 [-] 1 25078U 97077B 21110.16077059 .00000135 00000-0 37827-4 0 9992 2 25078 86.3945 141.2768 0002342 40.3256 319.8115 14.38358649225287 IRIDIUM 45 [-] 1 25104U 97082A 21109.83763985 .00002449 00000-0 18711-3 0 9990 2 25104 86.3852 33.1963 0213729 41.5228 320.2009 14.84947002224897 IRIDIUM 24 [-] 1 25105U 97082B 21109.69601855 .00000119 00000-0 31466-4 0 9997 2 25105 86.3958 3.0177 0013334 53.5479 306.6947 14.40078296224430 IRIDIUM 51 [-] 1 25262U 98018A 21109.86395262 .00002632 00000-0 18210-3 0 9995 2 25262 86.4014 45.2665 0203878 24.5473 336.5292 14.89768932218775 IRIDIUM 57 [-] 1 25273U 98019B 21109.93816400 .00000126 00000-0 37902-4 0 9994 2 25273 86.3972 60.9519 0002178 89.6120 270.5326 14.34427365206923 IRIDIUM 63 [-] 1 25286U 98021B 21109.92853031 .00000113 00000-0 32793-4 0 9990 2 25286 86.4026 357.9364 0002200 93.2475 266.8973 14.34874709205906 IRIDIUM 69 [-] 1 25319U 98026A 21109.80568598 .00000107 00000-0 28330-4 0 9995 2 25319 86.4043 15.5862 0002747 35.4346 324.7035 14.38905817204476 IRIDIUM 71 [-] 1 25320U 98026B 21109.74823936 .00000126 00000-0 34155-4 0 9993 2 25320 86.4023 10.8342 0004095 69.6720 290.4918 14.39301077204940 IRIDIUM 73 [-] 1 25344U 98032C 21109.87972412 .00000125 00000-0 27526-4 0 9997 2 25344 86.4414 330.0276 0002786 81.4108 278.7412 14.49288195210390 IRIDIUM 82 [-] 1 25467U 98051A 21109.90503976 .00001812 00000-0 12982-3 0 9996 2 25467 86.3953 99.7071 0179502 65.1997 296.7784 14.91404567195755 IRIDIUM 2 [-] 1 25527U 98066A 21109.87999749 .00002598 00000-0 12109-3 0 9995 2 25527 85.5256 282.4120 0007502 340.1407 19.9541 15.19359771231144